FW0743 Weather Reports


time (UTC)temp
F
wind
direction
speed
knots
gust
knots
rain 1hr
in
rain 24hr
in
rain mn
in
humidity
%
barometer
mb
20260901110040 63 174 2.6 5.2 0.00 0.13 0.12 98 1014.7
20260901104519 63 195 0.9 5.2 0.00 0.13 0.12 99 1015.1
20260901103028 63 130 0.0 3.5 0.00 0.13 0.12 98 1015.1
20260901101530 63 167 2.6 4.3 0.01 0.13 0.12 98 1015.1
20260901100033 63 204 0.9 4.3 0.02 0.13 0.12 98 1015.2
20260901094534 63 170 0.9 4.3 0.02 0.13 0.12 98 1015.3
20260901093024 63 195 0.9 5.2 0.02 0.13 0.12 98 1015.4
20260901091525 63 213 0.9 2.6 0.01 0.12 0.11 98 1015.5
20260901090028 63 119 0.9 2.6 0.00 0.11 0.10 98 1015.5
20260901084530 63 209 0.9 2.6 0.01 0.11 0.10 98 1015.3
20260901083033 63 154 0.9 5.2 0.01 0.11 0.10 98 1015.3
20260901081506 63 151 2.6 5.2 0.02 0.11 0.10 98 1015.1
20260901080006 63 184 1.7 4.3 0.08 0.11 0.10 98 1015.4
20260901074508 63 174 0.0 5.2 0.09 0.10 0.09 98 1015.5
20260901073007 63 187 0.9 4.3 0.09 0.10 0.09 98 1015.7
20260901071518 63 152 2.6 5.2 0.08 0.09 0.08 98 1015.7
20260901070017 63 170 1.7 5.2 0.02 0.03 0.02 97 1015.7
20260901064505 63 194 2.6 4.3 0.00 0.01 0.00 97 1016.0
20260901063007 63 209 2.6 5.2 0.00 0.01 0.00 97 1016.1
20260901061508 63 157 1.7 5.2 0.00 0.01 0.00 96 1016.3
20260901060008 63 150 0.9 5.2 0.00 0.01 0.00 96 1016.4
20260901054512 63 134 2.6 7.0 0.00 0.01 0.00 96 1016.5
20260901053010 63 192 0.9 5.2 0.00 0.01 0.00 96 1016.7
20260901051509 63 145 0.9 3.5 0.00 0.01 0.00 95 1016.9
20260901050010 63 130 2.6 7.0 0.00 0.01 0.00 95 1016.7
20260901044514 63 174 1.7 4.3 0.00 0.01 0.00 95 1016.7
20260901043008 63 153 1.7 4.3 0.00 0.01 0.00 94 1017.1
20260901041511 63 163 1.7 4.3 0.00 0.01 0.00 94 1017.1
20260901040012 63 163 0.9 1.7 0.00 0.01 0.00 93 1017.4
20260901034522 63 163 0.9 3.5 0.00 0.01 0.01 93 1017.3
20260901033012 63 155 1.7 4.3 0.00 0.01 0.01 93 1017.2
20260901031507 63 140 1.7 3.5 0.00 0.01 0.01 92 1017.2
20260901030013 63 134 0.9 4.3 0.00 0.01 0.01 92 1017.3
20260901024514 63 180 2.6 6.1 0.00 0.01 0.01 92 1017.2
20260901023019 63 188 1.7 4.3 0.00 0.01 0.01 92 1017.4
20260901021520 63 153 0.9 5.2 0.00 0.01 0.01 92 1017.6
20260901020012 63 163 1.7 4.3 0.00 0.01 0.01 92 1017.6
20260901014516 63 159 2.6 5.2 0.00 0.01 0.01 92 1017.6
20260901013018 64 160 1.7 4.3 0.00 0.01 0.01 92 1017.8
20260901011523 64 180 0.0 3.5 0.00 0.01 0.01 92 1018.0
20260901010018 64 163 0.9 3.5 0.00 0.01 0.01 92 1018.1
20260901004516 64 153 1.7 4.3 0.00 0.01 0.01 91 1017.8
20260901003020 64 159 2.6 6.1 0.00 0.01 0.01 91 1017.6
20260901001519 64 166 1.7 5.2 0.00 0.01 0.01 91 1017.4
20260901000021 64 175 2.6 6.1 0.00 0.01 0.01 91 1017.5
20260831234519 64 160 2.6 5.2 0.00 0.01 0.01 91 1017.4
20260831233017 64 150 2.6 5.2 0.00 0.01 0.01 91 1017.6
20260831231519 64 176 0.9 6.1 0.00 0.01 0.01 91 1017.7
20260831230019 64 175 3.5 7.0 0.00 0.01 0.01 91 1017.7
20260831224512 65 161 0.9 4.3 0.00 0.01 0.01 90 1017.9
20260831223019 65 161 1.7 7.8 0.00 0.01 0.01 90 1018.0
20260831221523 65 159 3.5 9.6 0.00 0.01 0.01 90 1018.0
20260831220025 65 185 2.6 7.0 0.00 0.01 0.01 90 1018.1
20260831214508 65 137 2.6 6.1 0.00 0.01 0.01 90 1018.1
20260831213014 64 143 1.7 6.1 0.00 0.01 0.01 91 1018.2
20260831211520 64 173 1.7 8.7 0.00 0.01 0.01 91 1018.4
20260831210025 64 153 3.5 7.8 0.00 0.01 0.01 91 1018.5
20260831204523 64 149 5.2 8.7 0.00 0.01 0.01 91 1018.6
20260831203013 64 161 4.3 9.6 0.00 0.01 0.01 91 1018.7
20260831201528 64 199 1.7 8.7 0.00 0.01 0.01 90 1018.6
20260831200038 64 136 4.3 10.4 0.00 0.01 0.01 90 1018.7
20260831194531 64 144 4.3 12.2 0.00 0.01 0.01 89 1018.8
20260831193037 64 183 4.3 10.4 0.00 0.01 0.01 90 1018.8
20260831191533 64 136 5.2 11.3 0.00 0.01 0.01 89 1019.0
20260831190029 65 135 7.0 10.4 0.00 0.03 0.01 88 1019.3
20260831184529 66 181 3.5 7.8 0.00 0.03 0.01 87 1019.4
20260831183029 66 187 0.9 5.2 0.00 0.05 0.01 89 1019.4
20260831181528 66 195 1.7 6.1 0.00 0.09 0.01 90 1019.6
20260831180042 66 170 0.9 6.1 0.00 0.12 0.01 90 1019.6
20260831174532 65 172 2.6 7.8 0.00 0.17 0.01 90 1019.9
20260831173027 66 134 3.5 7.0 0.01 0.17 0.01 91 1020.1
20260831171508 66 167 1.7 6.1 0.01 0.17 0.01 92 1020.0
20260831170013 66 132 1.7 4.3 0.01 0.17 0.01 93 1020.3
20260831164535 65 170 3.5 7.0 0.01 0.17 0.01 92 1020.3
20260831163027 66 180 0.9 6.1 0.00 0.16 0.00 92 1020.4
20260831161530 66 178 2.6 7.8 0.00 0.16 0.00 89 1020.6
20260831160013 66 163 1.7 6.1 0.00 0.16 0.00 89 1020.6
20260831154544 66 186 4.3 7.8 0.00 0.16 0.00 89 1020.6
20260831153027 66 153 4.3 7.0 0.00 0.16 0.00 91 1020.4
20260831151527 65 200 1.7 7.8 0.00 0.16 0.00 92 1020.5
20260831150012 65 153 1.7 8.7 0.00 0.16 0.00 92 1020.5
20260831144517 65 146 3.5 9.6 0.00 0.16 0.00 93 1020.4
20260831143022 65 163 3.5 9.6 0.00 0.16 0.00 95 1020.4
20260831141527 64 155 2.6 7.0 0.00 0.16 0.00 96 1020.3
20260831140031 63 106 1.7 7.8 0.00 0.16 0.00 97 1020.3
20260831134512 63 183 4.3 9.6 0.00 0.16 0.00 98 1020.3
20260831133016 62 182 2.6 5.2 0.00 0.16 0.00 98 1020.5
20260831131525 62 165 0.9 5.2 0.00 0.16 0.00 98 1020.5
20260831130030 61 130 2.6 6.1 0.00 0.16 0.00 98 1020.5
20260831124531 61 192 1.7 4.3 0.00 0.16 0.00 98 1020.6
20260831123013 61 159 2.6 5.2 0.00 0.16 0.00 98 1020.3
20260831121521 61 188 1.7 4.3 0.00 0.16 0.00 98 1020.8
20260831120035 60 188 0.9 2.6 0.00 0.16 0.00 98 1020.9
20260831114536 60 241 0.9 2.6 0.00 0.16 0.00 98 1020.9
20260831113035 60 241 0.9 2.6 0.00 0.16 0.00 98 1020.8
20260831111519 60 241 0.9 2.6 0.00 0.16 0.00 98 1020.7